www.pogodaiklimat.ru
ПОГОДА в Бахмале

Архив погоды в Бахмале (Джизакская область, Узбекистан)

Время
и дата
20:40 27.05
21:00 27.05
21:20 27.05
21:30 27.05
21:40 27.05
21:50 27.05
22:00 27.05
22:10 27.05
22:20 27.05
22:40 27.05
22:50 27.05
23:10 27.05
23:40 27.05
00:00 28.05
00:20 28.05
00:30 28.05
00:40 28.05
01:20 28.05
01:30 28.05
01:40 28.05
01:50 28.05
02:00 28.05
02:10 28.05
02:30 28.05
02:40 28.05
03:00 28.05
03:10 28.05
03:30 28.05
03:50 28.05
04:10 28.05
04:20 28.05
04:30 28.05
04:40 28.05
04:50 28.05
05:00 28.05
05:20 28.05
05:40 28.05
06:00 28.05
06:10 28.05
06:20 28.05
06:30 28.05
06:40 28.05
06:50 28.05
07:10 28.05
07:40 28.05
07:50 28.05
08:00 28.05
08:20 28.05
08:30 28.05
08:50 28.05
09:00 28.05
09:10 28.05
09:20 28.05
09:40 28.05
10:00 28.05
10:10 28.05
10:30 28.05
10:40 28.05
10:50 28.05
11:00 28.05
11:10 28.05
11:30 28.05
11:40 28.05
12:00 28.05
12:10 28.05
12:20 28.05
12:40 28.05
13:10 28.05
13:20 28.05
13:40 28.05
14:00 28.05
14:10 28.05
14:20 28.05
14:30 28.05
14:40 28.05
14:50 28.05
15:00 28.05
15:20 28.05
15:40 28.05
15:50 28.05
16:20 28.05
16:40 28.05
17:00 28.05
17:20 28.05
17:40 28.05
18:00 28.05
18:10 28.05
18:30 28.05
18:40 28.05
18:50 28.05
19:10 28.05
19:20 28.05
19:30 28.05
19:50 28.05
20:00 28.05
20:20 28.05
20:30 28.05
20:40 28.05
20:50 28.05
21:00 28.05
21:20 28.05
21:30 28.05
21:50 28.05
22:00 28.05
22:20 28.05
22:30 28.05
22:40 28.05
23:00 28.05
23:20 28.05
23:30 28.05
23:50 28.05
00:00 29.05
00:30 29.05
00:40 29.05
01:00 29.05
01:10 29.05
01:20 29.05
01:30 29.05
01:40 29.05
01:50 29.05
02:00 29.05
02:10 29.05
02:20 29.05
02:30 29.05
02:40 29.05
02:50 29.05
03:00 29.05
03:10 29.05
03:20 29.05
03:30 29.05
03:40 29.05
03:50 29.05
04:00 29.05
04:10 29.05
04:20 29.05
04:30 29.05
04:40 29.05
04:50 29.05
05:00 29.05
05:30 29.05
05:40 29.05
05:50 29.05
06:20 29.05
06:30 29.05
Ветер
(напр.,м/с)
Видимость Явления Солнечная радиация
(Вт/м2)
Т
(С)
Тd
(С)
f
(%)
Тe
(С)
Тes
(С)
Комфортность P
(гПа)
Po
(гПа)
Тmin
(С)
Tmax
(С)
R
(мм)
С +15.9 +11.0 73 1017.5 869.5 +16.1 +15.9
С +15.3 +11.0 76 1017.6 869.6 +15.4 +15.1
С +14.4 +12.0 86 1017.8 869.8 +14.9 +14.4
С +13.9 +12.3 90 1017.8 869.8 +14.4 +13.9
С +13.7 +12.6 93 1017.8 869.8 +13.9 +13.6
С +13.8 +13.1 95 1017.9 869.9 +13.9 +13.7
С +13.4 +12.9 97 1017.9 869.9 +13.8 +13.4
С +13.3 +12.7 96 1017.9 869.9 +13.4 +13.3
С +13.0 +13.0 100 1017.9 869.9 +13.6 +13.1
С +13.1 +13.1 100 1017.8 869.8 +13.1 +13.0
С +12.9 +12.9 100 1017.8 869.8 +13.2 +13.0
С +13.0 +13.0 100 1017.7 869.7 +13.0 +12.8
С +12.5 +12.5 100 1017.7 869.7 +12.6 +12.0
С +12.4 +12.4 100 1017.7 869.7 +12.6 +12.3
С +12.6 +12.5 99 1017.6 869.6 +13.1 +12.6
С +12.3 +12.3 100 1017.5 869.5 +12.6 +12.0
С +12.3 +12.3 100 1017.4 869.4 +12.7 +12.3
С +12.1 +12.1 100 1017.0 869.1 +12.3 +11.7
С +12.0 +12.0 100 1016.9 869.0 +12.1 +11.8
С +11.6 +11.6 100 1016.9 869.0 +12.0 +11.5
С +11.9 +11.9 100 1016.8 868.9 +11.9 +11.6
С +11.8 +11.8 100 1016.8 868.9 +12.2 +11.8
С +11.9 +11.9 100 1016.7 868.8 +12.2 +11.8
С +11.7 +11.7 100 1016.6 868.7 +12.1 +11.7
С +11.8 +11.8 100 1016.6 868.7 +11.8 +11.6
С +10.5 +10.5 100 1016.7 868.8 +11.1 +10.4
С +10.3 +10.3 100 1016.7 868.8 +10.6 +10.3
С +10.0 +10.0 100 1016.7 868.8 +10.4 +10.0
С +10.1 +10.1 100 1016.7 868.8 +10.2 +10.0
С +11.0 +10.9 100 1016.7 868.8 +11.0 +10.5
С +10.4 +10.4 100 1016.9 869.0 +11.1 +10.4
С +10.6 +10.6 100 1017.0 869.1 +10.7 +10.1
С +9.4 +9.4 100 1017.2 869.2 +10.6 +9.4
С +9.1 +9.1 100 1017.3 869.3 +9.4 +9.1
С +9.6 +9.6 100 1017.3 869.3 +9.6 +8.9
С +10.2 +10.2 100 1017.4 869.4 +10.2 +9.4
С +10.9 +10.8 100 1017.3 869.3 +11.0 +10.1
С +12.8 +10.4 85 1017.4 869.4 +12.8 +12.2
С +12.7 +11.0 90 1017.5 869.5 +12.9 +12.7
С +13.1 +11.8 92 1017.5 869.5 +13.1 +12.6
С +13.9 +11.8 87 1017.6 869.6 +13.9 +13.1
С +14.8 +12.5 86 1017.6 869.6 +14.8 +13.9
С +15.7 +13.7 88 1017.5 869.5 +15.6 +14.8
С +16.9 +14.1 84 1017.5 869.5 +16.8 +16.3
С +18.6 +12.6 68 1017.6 869.6 +18.6 +18.0
С +18.4 +11.8 65 1017.6 869.6 +18.6 +18.4
С +18.9 +12.0 64 1017.6 869.6 +18.9 +18.4
С +19.1 +8.9 52 1017.5 869.5 +19.3 +19.0
С +19.4 +9.8 54 1017.6 869.6 +19.4 +18.9
С +19.9 +9.0 49 1017.5 869.5 +19.9 +19.5
С +19.8 +8.7 49 1017.4 869.4 +19.9 +19.6
С +20.0 +8.5 48 1017.4 869.4 +20.0 +19.7
С +20.5 +9.5 49 1017.4 869.4 +20.6 +20.0
С +20.8 +9.9 49 1017.5 869.5 +21.3 +20.8
С +21.6 +11.4 52 1017.5 869.5 +21.7 +21.0
С +21.5 +10.5 49 1017.4 869.4 +21.6 +21.1
С +21.4 +9.6 47 1017.4 869.4 +21.9 +21.4
С +21.2 +9.2 46 1017.4 869.4 +21.7 +20.7
С +21.6 +11.4 52 1017.5 869.5 +21.6 +20.9
С +21.5 +9.2 46 1017.6 869.6 +21.8 +21.2
С +21.1 +8.7 45 1017.7 869.7 +21.5 +20.9
С +21.6 +10.7 50 1017.9 869.9 +22.1 +21.3
С +21.6 +10.5 49 1017.9 869.9 +21.9 +21.1
С +22.2 +12.8 55 1018.0 870.0 +22.1 +21.6
С +22.5 +11.5 50 1018.0 870.0 +22.7 +21.9
С +21.9 +9.4 45 1018.2 870.1 +22.5 +21.2
С +21.9 +9.2 44 1018.4 870.3 +22.6 +22.0
С +21.2 +7.8 42 1018.3 870.2 +21.8 +21.2
С +21.6 +8.4 43 1018.4 870.3 +21.7 +21.2
С +21.6 +9.1 45 1018.5 870.4 +21.6 +21.1
С +21.5 +7.9 41 1018.5 870.4 +22.1 +21.4
С +21.3 +8.6 44 1018.6 870.5 +21.7 +21.2
С +21.1 +8.4 44 1018.7 870.6 +21.8 +21.1
С +21.2 +6.7 39 1018.8 870.7 +21.5 +20.9
С +20.2 +6.0 39 1018.8 870.7 +21.2 +20.2
С +20.4 +6.2 40 1018.8 870.7 +20.9 +20.2
С +20.1 +6.3 41 1019.0 870.8 +20.5 +20.1
С +20.5 +5.8 38 1019.0 870.8 +21.1 +20.4
С +20.0 +6.3 41 1019.0 870.8 +20.2 +19.9
С +20.2 +5.4 38 1019.0 870.8 +20.2 +19.7
С +20.2 +5.7 39 1019.1 870.9 +21.2 +20.2
С +19.8 +5.8 40 1019.1 870.9 +19.7 +19.3
С +20.6 +6.0 39 1019.1 870.9 +20.7 +20.4
С +19.9 +6.8 43 1019.1 870.9 +20.4 +19.9
С +19.6 +5.0 38 1019.1 870.9 +20.0 +19.6
С +19.7 +7.2 44 1019.2 871.0 +19.8 +19.6
С +19.2 +4.5 38 1019.2 871.0 +19.7 +19.2
С +18.8 +4.8 40 1019.2 871.0 +19.0 +18.8
С +18.5 +5.1 41 1019.2 871.0 +18.8 +18.5
С +18.5 +5.7 43 1019.3 871.1 +18.6 +18.4
С +17.8 +4.7 42 1019.4 871.2 +18.2 +17.7
С +17.3 +5.0 44 1019.5 871.3 +17.8 +17.2
С +16.3 +6.3 52 1019.6 871.4 +17.3 +16.3
С +15.7 +5.1 49 1019.8 871.5 +16.1 +15.5
С +15.4 +4.9 50 1019.8 871.5 +15.7 +15.4
С +14.4 +5.5 55 1019.6 871.4 +14.5 +14.3
С +13.9 +5.9 58 1019.8 871.5 +14.4 +13.9
С +13.8 +5.3 56 1019.8 871.5 +14.0 +13.4
С +13.3 +5.5 59 1019.9 871.6 +13.9 +13.1
С +13.2 +5.3 59 1020.0 871.7 +13.4 +13.0
С +13.3 +5.3 58 1020.0 871.7 +13.3 +13.0
С +12.7 +5.4 61 1020.1 871.8 +13.3 +12.7
С +12.7 +5.6 62 1020.2 871.9 +12.8 +12.3
С +12.3 +5.7 64 1020.2 871.9 +12.7 +12.2
С +12.7 +5.4 61 1020.1 871.8 +12.7 +12.2
С +11.7 +5.5 66 1020.1 871.8 +12.7 +11.7
С +11.2 +5.4 67 1020.0 871.7 +11.7 +11.2
С +11.4 +5.3 67 1020.0 871.7 +11.6 +11.3
С +10.8 +5.3 69 1019.9 871.6 +10.8 +10.5
С +10.9 +5.3 68 1019.9 871.6 +11.3 +10.7
С +10.2 +5.6 73 1019.8 871.5 +10.7 +10.2
С +10.2 +5.4 72 1019.6 871.4 +10.3 +10.0
С +9.6 +5.5 76 1019.4 871.2 +10.0 +9.6
С +9.6 +5.7 76 1019.3 871.1 +9.7 +9.5
С +9.8 +5.3 73 1019.2 871.0 +10.1 +9.8
С +9.7 +5.3 74 1019.0 870.8 +9.8 +9.7
С +9.7 +5.2 73 1018.6 870.5 +9.7 +9.5
С +10.3 +5.0 69 1018.5 870.4 +10.5 +9.7
С +10.4 +4.9 68 1018.4 870.3 +10.5 +10.1
С +10.2 +5.0 70 1018.3 870.2 +10.4 +10.2
С +10.3 +4.9 69 1018.2 870.1 +10.3 +9.9
С +9.9 +4.9 71 1018.2 870.1 +10.3 +9.9
С +9.7 +4.8 72 1018.2 870.1 +10.2 +9.7
С +9.5 +4.9 73 1018.2 870.1 +9.8 +9.5
С +10.0 +4.7 70 1018.2 870.1 +10.1 +9.3
С +10.8 +4.5 65 1018.2 870.1 +10.8 +10.0
С +11.0 +4.5 64 1018.2 870.1 +11.2 +10.8
С +11.3 +4.5 63 1018.2 870.1 +11.3 +11.0
С +11.3 +4.8 64 1018.2 870.1 +11.3 +11.0
С +11.3 +4.8 64 1018.3 870.2 +11.4 +11.2
С +11.4 +4.7 63 1018.4 870.3 +11.4 +11.2
С +11.3 +4.7 64 1018.4 870.3 +11.4 +11.1
С +11.2 +4.7 64 1018.5 870.4 +11.3 +11.1
С +10.9 +4.8 66 1018.5 870.4 +11.2 +10.9
С +10.6 +4.8 67 1018.6 870.5 +11.0 +10.6
С +9.4 +5.1 75 1018.6 870.5 +10.6 +9.3
С +9.7 +5.1 73 1018.5 870.4 +9.7 +9.3
С +9.8 +4.9 72 1018.5 870.4 +9.9 +9.7
С +9.6 +4.9 72 1018.6 870.5 +9.8 +9.6
С +9.4 +5.0 74 1018.7 870.6 +9.3 +8.9
С +8.9 +5.2 78 1018.7 870.6 +9.4 +8.8
С +9.3 +5.7 78 1018.7 870.6 +9.3 +8.9
С +11.0 +6.0 71 1018.6 870.5 +11.0 +10.4
С +11.7 +6.2 69 1018.5 870.4 +11.6 +11.0
Местоположение метеостанции Бахмал (Джизакская область, Узбекистан): широта 39.72 долгота 68.01 высота над уровнем моря 0 м.
В архиве по умолчанию представлена погода в Бахмале за последние 1-2 суток. Обновление информации о фактической погоде в базе происходит ежечасно! Архивные данные за месяц целиком и за предыдущие месяцы Вы можете получить, выбрав интересующий диапазон дат из раскрывающегося списка и нажав кнопку "Ввод!".
*Определитесь, кто Вы:
Внимание! Время в таблицах - местное (без учета летнего времени). Для получения всемирного времени необходимо вычесть поправку, которая равна 5 ч.
Смотрите также архив погоды на ближайших метеорологических станциях:
Партнеры нашего сайта:      
Пояснения к столбцам:
  • Ветер - указаны скорость ветра в м/с - средняя за 10 мин, порывы в срок и между сроками (в фигурных скобках) и направление, откуда дует ветер: С - северный,
  • СВ - северо-восточный, В - восточный, ЮВ - юго-восточный, Ю - южный, ЮЗ - юго-западный, З - западный, СЗ - северо-западный.
  • Видимость - горизонтальная дальность видимости в метрах или километрах. При видимости от 1 до 10 км при отсутствии осадков обычно наблюдается дымка, при ухудшении видимости до 1 км и менее - туман. В сухую погоду видимость может ухудшаться дымом, пылью или мглою.
  • Явления - указаны атмосферные явления, наблюдавшиеся в срок или в последний час перед сроком.
  • Солнечная радиация - мощность потока солнечного излучения на поверхность земли и предметов в Вт/м2.
  • T - Температура воздуха - температура, измеренная на высоте 2 м над землей.
  • Td - Температура точки росы - температура, при понижении до которой содержащийся в воздухе водяной пар достигнет насыщения.
  • f - Относительная влажность воздуха - влажноcть воздуха, измеренная на высоте 2 м над землей.
  • Te - Эффективная температура - температура, которую ощущает одетый по сезону человек в тени. Характеристика душности погоды. При расчете учитывается влияние влажности воздуха и скорости ветра на теплоощущения человека.
  • Tes - Эффективная температура на солнце - температура, которую ощущает человек, с поправкой на солнечный нагрев. Характеристика знойности погоды. Зависит от высоты солнца над горизонтом, облачности и скорости ветра. Ночью, в пасмурную погоду, а также при ветре 12 м/с и более поправка равна нулю.
  • P - Атмосферное давление - приведенное к уровню моря атмосферное давление.
  • Po - Атмосферное давление - измеренное на уровне метеостанции атмосферное давление.
  • Tmin - Минимальная температура - минимум температуры воздуха на высоте 2 м над землей.
  • Tmax - Максимальная температура - максимум температуры воздуха на высоте 2 м над землей.
  • R - Количество осадков - Количество выпавших осадков за период времени, мм. При наведении курсора мыши на число - период времени, за который выпало указанное количество осадков.